Flag for Poland Weather past 2 weeks in Częstochowa, Poland

39 °F


Feels Like: 32 °F
Forecast: 31 / 46 °F
Wind: 10 mph from Northeast

Location: Katowice Airport

Current Time: Oct 10, 2015 at 9:08:35 PM

Latest Report: Oct 10, 2015 at 8:30 PM

Visibility: 10 mi

Pressure: 30.15 "Hg

Humidity: 52%

Dew point: 23 °F

Location of CzęstochowaLocation

Historic Weather in Częstochowa — Graph


Częstochowa temperature yesterday

Maximum temperature yesterday: 52 °F (at 12:30 PM)
Minimum temperature yesterday: 28 °F (at 6:30 AM)
Average temperature yesterday: 41 °F

Past Weeks' High & Low Weather Summary

High73 °F (Oct 4, 3:00 PM)100% (Sep 27, 7:30 AM)30.57 "Hg (Sep 27, 7:30 AM)
Low28 °F (Oct 1, 5:00 AM)32% (Oct 2, 3:00 PM)29.86 "Hg (Oct 6, 4:30 PM)
Average50 °F72%30.22 "Hg
* Reported Sep 25 8:00 PM — Oct 10 8:00 PM, Częstochowa, Weather by CustomWeather, © 2015

Note: Actual official high and low records may vary slightly from our data, if they occured in-between our weather recording intervals... More about our weather records


Częstochowa weather history for previous 24 hours

Time TempWeatherWind HumidityBarometerVisibility
8:00 PM
Sat, Oct 10
41 °FClear.10 mph45%30.15 "Hg10 mi
7:30 PM41 °FClear.8 mph45%30.15 "Hg10 mi
7:00 PM41 °FSunny.9 mph45%30.15 "Hg10 mi
6:30 PM43 °FSunny.9 mph93%30.15 "Hg10 mi
6:00 PM45 °FSunny.8 mph42%30.15 "Hg10 mi
5:30 PM46 °FSunny.13 mph40%30.15 "Hg10 mi
5:00 PM48 °FSunny.14 mph37%30.15 "Hg10 mi
4:30 PM48 °FSunny.13 mph37%30.15 "Hg10 mi
4:00 PM48 °FSunny.15 mph37%30.15 "Hg10 mi
3:30 PM50 °FPassing clouds.15 mph35%30.15 "HgN/A
3:00 PM50 °FSunny.20 mph32%30.15 "Hg10 mi
2:30 PM50 °FPassing clouds.17 mph32%30.15 "HgN/A
2:00 PM50 °FPassing clouds.20 mph35%30.15 "HgN/A
1:30 PM50 °FPassing clouds.16 mph35%30.15 "HgN/A
1:00 PM48 °FSunny.16 mph37%30.18 "Hg10 mi
12:30 PM50 °FPassing clouds.13 mph37%30.18 "HgN/A
12:00 PM46 °FSunny.17 mph40%30.18 "Hg10 mi
11:30 AM45 °FSunny.17 mph42%30.18 "Hg10 mi
11:00 AM46 °FSunny.17 mph40%30.18 "Hg10 mi
10:30 AM45 °FSunny.18 mph42%30.18 "Hg10 mi
10:00 AM43 °FSunny.12 mph46%30.18 "Hg10 mi
9:30 AM39 °FSunny.16 mph52%30.21 "Hg10 mi
9:00 AM37 °FSunny.12 mph56%30.21 "Hg10 mi
8:30 AM36 °FSunny.12 mph60%30.21 "Hg10 mi
8:00 AM36 °FSunny.8 mph60%30.21 "Hg10 mi
7:30 AM34 °FClear.7 mph65%30.18 "Hg10 mi
7:00 AM34 °FClear.8 mph65%30.21 "Hg10 mi
6:30 AM34 °FClear.10 mph65%30.18 "Hg10 mi
6:00 AM34 °FClear.9 mph65%30.18 "Hg10 mi
5:30 AM34 °FClear.9 mph65%30.21 "Hg10 mi
5:00 AM34 °FClear.8 mph65%30.21 "Hg10 mi
4:30 AM32 °FClear.8 mph69%30.18 "Hg10 mi
4:00 AM32 °FClear.7 mph69%30.21 "Hg10 mi
3:30 AM34 °FClear.9 mph70%30.21 "Hg10 mi
3:00 AM34 °FClear.8 mph70%30.21 "Hg10 mi
2:30 AM36 °FClear.8 mph65%30.21 "Hg10 mi
2:00 AM36 °FClear.8 mph65%30.21 "Hg10 mi
1:30 AM37 °FClear.9 mph60%30.21 "Hg10 mi
1:00 AM37 °FClear.8 mph60%30.21 "Hg10 mi
12:30 AM37 °FClear.8 mph65%30.21 "Hg10 mi
12:00 AM37 °FClear.8 mph60%30.21 "Hg10 mi
11:00 PM
Fri, Oct 9
39 °FClear.10 mph61%30.21 "Hg10 mi
10:30 PM41 °FClear.10 mph57%30.21 "Hg10 mi
10:00 PM41 °FClear.10 mph57%30.21 "Hg10 mi
9:30 PM43 °FClear.9 mph53%30.21 "Hg10 mi
9:00 PM43 °FClear.9 mph49%30.21 "Hg10 mi
Weather by CustomWeather, © 2015

See weather overviewHow to use our weather pages